Theta_e
281 281 281 280 279 280 281 280 279 279 280 280 281 281 283 284 284 283 284 284 283 282 282 282 282 282 283 287 289 291 292 292 292 292 292 292 292 292 292 293 293 293 293 293 293 293 293 293 293 294 294 294 294 294 294 295 295 296 296 296 297 297 297 298 298 298 298 298 299 299 299 299 299 298 298 298 298 299 299 299 299 300 300 300 300 300
280 281 281 280 279 279 281 280 279 279 279 280 281 282 283 282 282 283 283 283 283 283 282 282 282 282 281 285 288 291 291 292 292 292 292 292 292 292 292 292 292 293 293 293 293 293 293 293 293 293 293 294 294 294 294 295 295 295 295 295 296 296 296 296 297 297 297 297 297 297 297 297 297 297 297 297 297 297 298 298 298 299 299 299 300 300
279 280 280 280 279 279 280 280 279 279 279 280 281 282 281 281 281 282 283 283 283 283 283 282 283 283 282 285 288 290 291 291 291 291 291 291 291 292 292 292 292 292 292 292 292 293 293 293 293 293 293 293 294 294 294 294 294 294 295 295 295 295 295 295 295 296 296 296 296 296 296 296 296 296 296 296 297 297 297 298 298 298 298 298 299 299
279 280 280 280 280 279 279 279 279 279 280 281 282 281 281 281 281 282 282 282 282 283 283 282 283 283 284 285 287 289 290 290 290 291 291 291 291 291 291 291 292 292 292 292 292 292 292 293 293 293 293 293 294 294 294 294 294 294 294 294 294 294 294 294 294 294 295 295 295 295 295 295 295 295 295 296 296 296 297 297 297 297 297 298 298 298
279 280 280 280 280 280 279 280 280 281 282 282 282 281 281 281 282 282 282 282 282 283 283 283 283 283 284 283 285 287 289 290 290 290 290 290 291 291 291 291 291 291 291 292 292 292 292 292 293 293 293 293 293 293 293 293 293 293 293 293 293 294 294 294 294 294 294 294 294 294 294 294 294 295 295 295 296 296 296 296 297 297 297 297 298 298
279 280 281 280 280 281 281 281 281 282 282 282 282 282 282 282 282 282 283 283 283 284 284 284 283 283 283 282 284 287 288 289 289 290 290 290 290 290 290 291 291 291 291 291 292 292 292 292 293 293 293 293 293 293 293 293 293 293 293 293 293 293 293 293 293 293 293 293 293 293 293 294 294 294 294 295 295 295 296 296 296 296 296 297 297 298
280 280 281 280 281 281 281 281 282 282 281 282 282 282 282 282 282 283 283 283 283 283 284 283 282 282 281 282 284 286 287 288 288 289 289 289 289 290 290 290 290 291 291 291 292 292 292 292 292 293 293 293 293 293 293 292 292 292 292 292 293 293 293 293 293 293 293 293 293 293 293 293 293 294 294 294 294 295 295 295 296 296 296 297 297 297
280 281 282 281 281 281 282 282 282 282 282 282 281 282 282 283 283 283 283 282 281 281 282 282 281 281 281 281 283 284 284 285 285 285 286 287 288 289 289 290 290 291 291 291 291 292 292 292 292 292 292 292 292 292 292 292 292 292 292 292 292 292 292 292 292 292 292 292 292 292 292 293 293 293 293 294 294 294 295 295 296 296 297 297 298 298
281 281 281 281 281 281 281 281 282 282 282 282 282 282 282 282 283 283 282 281 280 280 280 280 281 281 281 281 281 282 283 284 284 284 284 285 285 286 288 289 290 290 291 291 291 291 291 292 292 292 292 292 292 291 291 291 291 291 291 291 291 291 292 292 292 292 292 292 292 292 292 293 293 293 293 294 294 294 295 295 296 296 297 297 298 299
281 281 281 282 281 281 281 281 281 282 282 283 283 283 283 282 281 281 280 280 280 280 280 280 280 281 281 281 281 282 283 284 285 286 287 286 286 287 288 288 289 289 290 291 291 291 291 291 291 291 291 291 291 291 291 290 290 290 291 291 291 291 291 291 291 292 292 292 292 292 292 293 293 293 294 294 294 294 295 295 295 296 297 297 298 298
281 281 281 281 281 281 282 282 282 283 283 283 283 283 283 282 280 279 278 279 280 280 281 281 280 280 280 280 281 281 282 282 283 285 286 287 287 288 288 288 288 289 290 290 290 290 290 290 290 290 290 290 290 290 290 290 290 290 290 290 290 290 291 291 291 291 292 292 292 292 293 293 293 294 294 294 294 294 295 295 295 296 296 297 297 298
281 281 281 281 281 282 282 283 284 284 283 282 281 280 280 280 280 280 279 279 279 280 280 280 280 280 280 280 280 281 281 281 281 282 283 284 285 285 286 286 286 287 287 288 288 289 289 289 289 289 289 289 289 289 289 289 289 289 289 289 290 290 290 291 291 291 291 292 292 293 293 293 293 293 294 294 294 294 294 295 295 295 296 296 296 297
281 281 281 281 281 282 283 283 282 281 281 279 279 278 278 280 280 280 279 279 279 279 279 279 279 280 280 280 281 281 281 281 281 282 282 282 282 282 282 282 283 283 284 284 284 285 287 287 288 288 288 288 288 288 288 288 288 289 289 289 290 290 290 291 291 291 292 292 292 293 293 293 293 293 294 294 294 294 294 294 294 295 295 295 296 296
280 281 281 281 282 282 282 281 280 279 278 278 278 278 279 280 280 280 279 279 279 279 279 279 279 279 280 281 281 281 281 281 282 282 282 281 281 281 281 282 282 282 282 282 282 283 285 285 285 285 287 287 287 287 287 288 288 289 289 289 290 290 290 291 291 291 291 292 292 292 293 293 293 293 294 294 294 294 294 294 294 294 294 294 295 295
281 281 281 281 281 281 280 279 279 278 278 279 279 279 279 279 279 279 278 278 278 278 278 278 278 279 280 281 282 282 282 282 282 281 281 281 281 281 281 281 281 281 281 281 281 282 284 284 283 283 283 284 285 285 286 287 288 289 289 289 290 290 290 291 291 291 291 292 292 292 292 293 293 293 293 293 293 293 293 293 293 293 294 294 294 294
282 281 281 280 279 279 279 279 278 278 278 279 279 279 278 278 278 278 278 278 278 278 278 278 278 278 280 281 282 282 283 282 282 281 281 281 281 281 281 281 280 280 281 281 281 281 282 282 282 282 282 284 285 287 287 288 288 289 289 290 290 290 290 290 291 291 291 291 292 292 292 292 293 293 293 293 293 293 293 293 293 293 293 294 294 294
282 281 280 279 278 278 279 279 278 278 278 278 279 279 278 278 278 278 278 278 278 278 278 277 277 277 278 279 281 282 283 282 282 281 281 280 281 281 281 280 280 280 280 280 280 281 281 281 281 282 282 284 286 287 288 288 289 289 289 289 290 290 290 290 291 291 291 291 291 292 292 292 292 292 292 292 293 293 293 293 293 293 293 293 294 294
280 280 279 278 278 278 278 278 278 278 278 278 278 279 279 279 279 279 278 278 278 278 278 278 278 277 277 278 280 282 282 282 281 280 280 279 280 281 281 280 280 279 279 280 280 281 281 281 281 281 283 286 287 287 288 288 289 289 289 289 289 290 290 290 290 291 291 291 291 291 291 292 292 292 292 292 292 292 293 293 293 293 293 294 294 294
280 279 279 278 278 278 278 278 278 278 278 278 278 278 279 279 279 279 279 279 278 278 278 278 278 278 278 279 280 282 283 282 281 279 278 278 279 280 280 280 280 280 279 280 280 281 281 281 282 284 286 287 287 287 288 288 288 289 289 289 289 290 290 290 290 290 291 291 291 291 291 291 291 292 292 292 292 292 292 293 293 293 293 294 294 294
279 279 279 279 278 278 278 278 279 279 279 280 280 279 279 279 279 279 279 279 279 279 279 279 279 279 279 280 281 282 283 282 280 279 278 278 278 279 279 279 279 279 279 279 280 280 280 280 281 283 285 286 287 287 287 288 288 289 289 289 289 290 290 290 290 290 290 290 291 291 291 291 291 291 291 292 292 292 292 292 293 293 293 293 293 293
279 279 279 279 279 278 278 279 279 280 281 281 280 279 279 279 279 279 279 280 280 280 280 280 280 280 280 280 280 281 281 280 279 278 277 277 278 278 279 279 279 279 278 279 280 280 280 280 280 281 283 285 286 287 287 288 288 289 289 289 289 289 289 290 290 290 290 290 290 291 291 291 291 291 291 291 292 292 292 292 292 292 292 293 293 293
279 279 280 280 280 280 280 280 280 281 282 281 280 279 279 279 279 279 280 280 280 280 280 280 280 280 280 280 280 280 280 280 279 278 277 276 276 277 279 279 279 278 278 279 279 280 280 280 280 281 284 285 286 287 287 288 288 288 289 289 289 289 289 289 290 290 290 290 290 290 290 291 291 291 291 291 291 291 291 292 292 292 292 292 292 293
280 281 281 281 281 281 280 280 280 281 282 281 281 280 280 280 280 280 280 281 280 280 279 279 280 280 280 280 280 280 280 279 279 278 277 276 276 277 278 279 279 279 278 279 279 280 280 280 280 281 283 286 286 287 287 287 288 288 288 288 289 289 289 289 289 289 290 290 290 290 290 290 291 291 291 291 291 291 291 291 292 292 292 292 292 292
282 281 281 281 281 281 281 281 281 281 282 282 282 282 283 283 283 283 282 281 281 280 279 279 279 279 279 279 279 279 279 278 278 278 277 276 276 277 279 279 279 278 278 279 280 280 280 280 281 281 282 284 286 286 287 287 288 288 288 288 288 289 289 289 289 289 289 290 290 290 290 290 290 290 290 290 290 291 291 291 291 291 292 292 292 292
282 282 282 282 282 283 283 284 284 285 285 285 285 285 284 284 283 282 281 280 280 280 279 278 277 277 277 278 278 277 278 277 278 278 277 276 276 277 278 279 278 278 278 279 280 280 280 280 280 281 281 283 284 286 287 287 287 288 288 288 288 288 288 289 289 289 289 289 290 290 290 290 290 290 290 290 290 290 291 291 291 291 291 291 291 292
285 285 285 286 286 287 288 288 289 289 288 287 285 284 283 282 281 280 279 279 279 279 278 276 276 275 276 276 276 276 277 277 278 278 278 277 276 276 277 278 278 278 278 279 280 280 280 280 280 280 280 281 283 285 286 286 287 287 287 288 288 288 288 289 289 289 289 289 289 289 289 290 290 290 290 290 290 290 290 291 291 291 291 291 291 291
287 287 287 288 288 288 288 288 288 288 287 287 285 284 283 281 280 279 278 278 278 278 276 275 275 275 275 275 276 276 277 278 279 279 279 277 276 276 277 278 278 278 278 278 279 280 280 280 280 280 280 280 281 283 285 286 286 287 287 287 288 288 288 288 288 288 289 289 289 289 289 289 289 290 290 290 290 290 290 290 290 290 290 290 290 290
286 287 287 287 287 287 287 286 286 286 286 285 285 285 284 281 279 278 277 278 278 277 276 275 274 274 274 275 275 276 277 278 278 279 279 277 276 276 277 278 278 278 278 278 279 280 281 280 280 280 279 280 280 281 283 285 286 286 287 287 287 287 288 288 288 288 288 288 288 289 289 289 289 289 290 290 290 290 290 290 290 290 290 289 288 288
286 286 286 286 285 285 285 284 284 284 284 284 285 284 283 281 279 277 277 278 277 276 275 275 275 275 275 275 275 276 277 277 277 278 278 277 276 276 277 278 278 278 278 277 278 278 279 279 279 279 279 280 280 281 281 283 284 285 285 286 286 287 287 287 287 287 288 288 288 288 288 289 289 289 289 289 290 290 290 290 290 289 289 288 287 287
283 282 281 282 282 282 281 280 281 282 283 284 284 283 283 281 279 278 278 278 277 276 276 276 276 275 275 275 275 275 275 276 277 277 278 277 276 276 277 277 277 278 277 277 276 275 276 277 279 279 279 280 280 280 280 281 282 282 282 284 284 285 286 286 287 287 287 288 288 288 288 288 288 289 289 289 289 289 289 289 289 288 287 287 286 286
278 278 277 277 277 278 278 278 279 280 282 282 283 282 282 280 280 279 279 279 278 277 276 276 276 276 275 275 274 273 273 275 277 278 279 277 276 276 277 277 277 277 278 276 275 274 274 275 277 279 279 280 280 280 280 280 281 281 281 281 282 283 285 286 286 287 287 287 287 288 288 288 288 288 288 289 289 289 289 289 289 288 287 286 285 285
277 277 276 276 276 277 278 279 279 279 279 280 280 281 281 281 280 280 279 279 278 278 277 276 276 276 276 275 274 273 274 275 278 280 280 278 277 277 277 277 277 277 278 277 276 274 273 274 276 278 279 279 279 279 280 281 281 281 281 281 281 282 284 285 285 285 286 286 287 287 287 287 287 288 288 288 288 289 289 289 289 288 286 285 285 284
277 277 276 277 277 278 279 279 279 279 279 279 279 280 280 280 281 281 280 279 279 278 277 276 276 276 275 275 275 275 275 276 278 280 281 278 277 277 277 277 276 277 277 277 277 276 275 275 276 277 278 279 279 279 280 281 281 281 281 280 280 281 282 284 284 284 284 285 285 286 286 287 287 287 287 288 288 288 288 288 288 288 287 285 285 284
276 277 277 277 277 277 278 278 279 279 279 279 279 280 280 280 280 280 280 280 279 279 278 277 276 276 275 275 275 275 276 277 279 281 281 279 277 277 277 277 276 276 276 276 277 276 276 276 276 276 277 278 279 279 280 280 280 281 280 280 280 280 281 282 282 282 282 283 283 283 284 284 285 286 286 287 287 287 288 288 288 288 288 287 285 285
276 277 277 277 277 277 278 278 278 278 279 279 279 279 280 279 279 279 280 280 280 279 279 278 278 277 276 275 275 275 275 277 279 281 281 279 278 277 277 276 276 276 276 276 276 276 275 276 276 277 276 277 278 278 279 279 280 280 280 280 280 280 280 281 281 281 281 282 281 281 281 282 283 283 284 285 286 287 287 288 288 288 289 288 288 286
276 277 277 277 277 277 277 278 278 278 279 279 279 279 279 279 279 279 279 279 280 280 280 280 279 279 278 277 276 276 276 277 279 281 281 280 279 278 277 277 277 277 276 276 276 275 275 275 276 277 277 276 276 277 278 279 280 280 280 280 280 281 281 281 281 281 281 281 281 281 281 281 282 282 283 285 286 287 288 288 288 288 289 289 289 288
276 277 277 277 277 277 277 277 278 278 278 278 278 279 279 279 279 279 279 279 279 279 280 280 280 280 280 279 279 278 278 279 280 280 281 280 279 278 277 277 277 278 277 276 276 276 275 275 275 276 276 276 276 276 277 278 279 279 279 280 280 280 281 281 281 281 281 281 281 281 281 282 282 282 283 285 286 287 287 288 288 288 288 288 288 288
276 276 277 277 277 277 277 277 277 278 278 278 278 279 279 279 279 279 279 279 279 279 279 279 279 279 280 281 280 280 280 279 279 279 280 280 279 279 278 278 278 278 278 277 277 276 276 275 274 274 275 275 276 277 278 278 278 278 278 279 280 280 281 281 282 282 282 282 282 282 283 283 282 282 283 284 284 284 283 284 285 286 287 287 288 288
276 276 277 277 277 277 277 277 277 278 278 278 279 279 279 279 279 279 279 279 279 279 279 279 279 279 279 279 280 280 281 280 280 280 280 280 279 279 278 278 278 278 278 278 278 277 276 275 275 274 274 275 276 277 277 278 278 278 278 279 280 280 280 281 281 282 282 282 282 282 282 282 282 282 281 282 281 281 281 281 282 284 284 284 285 286
276 276 277 277 277 277 277 277 278 278 278 279 279 279 279 279 279 279 279 279 279 279 279 279 279 279 279 280 280 280 280 280 280 280 280 279 279 279 279 278 278 278 278 278 278 278 277 276 276 276 276 275 275 276 277 277 278 278 279 278 278 279 280 281 281 281 281 281 281 281 281 281 281 281 281 281 281 281 281 281 282 283 283 283 282 282
276 276 276 277 277 278 278 278 279 279 279 279 279 278 278 278 278 278 278 278 278 278 279 279 279 279 279 279 279 279 280 279 280 280 279 279 279 279 279 278 278 278 278 278 278 278 277 276 276 276 276 276 276 276 277 277 278 279 279 278 278 279 280 281 281 281 281 281 281 281 282 282 282 282 282 282 282 282 282 282 282 282 283 283 282 282
276 276 276 277 277 277 278 278 279 279 279 279 278 278 277 277 277 277 277 277 277 277 278 278 277 277 277 277 278 279 279 279 279 279 279 279 278 279 279 279 279 278 278 278 277 277 278 277 277 277 276 276 276 276 276 277 278 279 279 278 279 279 280 281 281 281 281 281 281 281 282 282 282 282 282 282 282 282 283 283 283 284 284 283 283 282
276 276 276 277 277 278 278 279 279 279 278 278 277 277 277 277 277 277 277 277 277 277 277 277 277 277 276 276 277 277 278 279 279 280 280 279 278 278 279 279 279 279 279 278 277 277 278 278 278 278 277 277 277 277 276 277 278 278 278 279 279 278 278 278 279 280 280 281 281 281 281 281 281 282 282 282 282 282 282 283 284 285 285 283 283 283
276 276 277 277 277 278 278 278 278 277 277 277 277 277 277 278 278 278 277 277 277 277 277 277 277 276 276 275 276 276 277 278 279 279 279 280 280 279 279 279 280 280 279 278 278 277 277 278 278 278 278 278 278 277 277 277 277 278 278 279 279 278 277 278 279 280 280 281 281 281 281 281 281 282 282 282 282 282 282 283 283 283 284 283 283 283
276 277 277 277 277 277 277 277 277 277 277 276 276 277 277 277 278 278 277 277 276 276 277 277 276 276 275 275 275 276 276 277 278 278 278 280 281 282 281 280 280 280 280 279 278 278 277 277 277 278 278 278 278 277 277 277 277 278 279 279 279 279 279 280 280 280 280 280 280 281 281 281 281 281 281 281 282 282 282 283 283 282 282 283 283 283
276 276 276 276 276 276 276 276 276 276 276 276 276 277 277 277 277 277 277 277 276 276 276 277 276 275 274 275 275 275 275 276 276 277 278 278 278 279 279 280 280 280 280 280 280 279 279 278 278 278 278 278 278 278 278 278 277 277 278 279 279 279 279 280 280 280 280 280 280 281 281 281 281 281 281 281 281 282 282 283 283 283 282 282 282 282
276 276 275 275 275 275 276 276 276 276 276 276 276 276 277 277 277 277 277 277 276 276 276 276 276 275 274 275 275 275 275 275 276 276 277 278 278 278 279 279 280 281 281 280 280 280 280 280 279 279 278 277 277 277 277 278 278 278 278 278 278 279 279 279 280 280 281 281 281 281 281 282 281 281 281 281 281 282 282 283 283 283 283 283 282 282
276 275 275 275 275 275 275 275 275 275 275 275 276 276 277 277 277 277 277 276 276 276 276 276 275 275 275 275 275 275 275 275 276 276 277 277 278 278 279 279 279 280 281 281 281 281 280 280 280 279 279 278 277 276 277 277 278 278 278 278 278 278 278 279 280 281 281 282 282 282 282 282 281 281 281 281 281 281 281 282 282 283 283 283 283 282
275 275 275 275 275 275 275 275 275 275 275 275 275 276 276 277 278 278 277 276 276 276 275 275 275 274 274 275 275 276 276 276 276 276 277 277 278 278 278 279 279 279 280 280 279 280 280 280 280 281 281 279 278 277 277 277 278 278 279 279 279 279 279 279 280 281 282 282 282 283 283 282 282 282 281 280 280 280 280 281 282 282 283 283 283 283
275 275 275 275 275 274 274 275 275 275 275 275 275 275 276 276 276 276 276 276 276 276 275 275 275 274 274 275 275 275 276 276 276 276 277 278 278 278 278 278 278 279 278 278 278 278 278 279 280 281 283 282 281 280 278 278 278 279 279 279 280 280 280 280 281 282 282 282 282 283 282 282 282 282 281 280 280 279 280 280 281 282 282 283 283 283
275 275 275 275 275 274 274 275 275 275 275 275 275 275 275 275 276 276 276 276 276 275 275 275 275 275 275 275 275 276 276 276 276 276 277 277 278 278 278 278 278 277 277 276 276 276 276 276 277 278 281 283 284 283 281 280 279 279 279 279 280 280 281 281 281 282 283 283 283 282 282 282 282 282 281 280 280 279 279 279 280 281 282 282 283 283
Wind_Speed
3 3 3 3 3 3 4 4 4 4 5 5 5 5 5 7 7 7 9 9 9 8 8 8 8 9 10 14 17 19 21 22 23 23 24 24 24 24 24 24 24 24 24 24 24 24 24 24 24 24 24 23 23 23 23 23 23 23 23 23 24 24 24 24 24 24 24 24 24 23 23 23 23 23 23 23 23 23 23 23 23 24 24 24 25 25
3 3 3 3 3 3 4 4 4 4 5 5 5 6 6 7 7 7 7 8 8 8 7 7 7 8 8 11 15 18 20 22 23 23 23 24 24 24 24 24 24 24 24 25 24 24 24 24 24 24 23 23 23 23 23 23 23 23 23 23 24 24 24 24 24 24 24 23 23 23 23 23 23 23 23 23 23 23 24 24 24 24 24 24 24 24
3 3 3 3 3 3 4 4 4 4 4 5 6 7 8 8 8 7 7 7 7 7 6 7 7 7 8 9 13 17 19 21 22 23 23 24 24 24 24 25 25 25 25 25 24 24 24 24 24 24 23 23 23 23 23 23 24 24 24 24 24 24 24 24 24 24 24 23 23 23 23 23 23 23 23 23 23 24 24 24 24 24 25 25 25 25
3 3 3 3 3 3 4 4 4 4 5 6 7 8 8 8 7 7 7 6 6 6 6 6 6 7 7 7 10 14 18 20 22 23 23 24 24 24 25 25 25 25 25 25 24 24 24 24 24 24 24 24 24 24 24 24 24 24 24 24 24 24 24 24 24 23 23 23 23 23 23 23 23 23 23 23 23 24 24 24 24 25 25 25 25 25
3 3 3 3 3 4 4 4 5 5 6 6 7 7 7 7 6 6 6 6 6 6 6 6 6 6 6 6 9 13 18 20 22 23 24 24 24 25 25 25 25 25 25 24 24 24 24 24 24 24 24 24 24 24 24 24 24 24 24 24 24 24 24 24 23 23 23 22 22 22 22 22 22 22 23 23 23 23 23 24 24 24 24 24 25 25
3 3 3 3 3 4 4 4 5 5 5 6 6 6 6 6 5 5 6 6 6 6 5 5 5 6 6 6 9 13 17 19 21 22 23 24 24 24 24 24 24 24 24 24 24 24 24 24 24 24 24 24 24 24 24 25 25 25 25 25 24 24 24 23 23 23 22 22 22 22 22 22 22 22 22 23 23 23 23 23 24 24 24 24 24 24
3 3 3 3 3 3 3 4 4 5 5 5 6 6 6 5 5 5 6 5 5 5 5 5 5 5 6 7 9 12 14 17 19 20 21 22 23 23 23 24 24 24 24 24 24 24 24 24 24 24 24 24 25 25 25 25 25 25 25 25 24 24 23 23 23 22 22 22 22 22 22 22 22 22 22 23 23 23 23 23 24 24 24 24 24 24
5 4 4 4 4 4 4 4 4 5 5 5 5 5 5 5 5 6 5 5 4 4 4 4 4 4 5 5 7 9 10 11 13 14 16 18 19 20 21 22 23 23 24 24 24 24 24 24 24 24 25 25 25 26 26 26 26 25 25 24 24 23 23 23 22 22 22 22 22 22 22 23 23 23 23 23 23 23 23 24 24 24 24 24 25 25
6 6 5 5 5 5 5 5 5 5 5 5 5 5 6 6 6 5 5 4 4 4 4 4 5 5 5 5 5 7 8 9 9 10 12 12 13 15 17 19 21 22 22 23 23 24 24 24 25 25 25 26 26 26 26 26 25 25 24 24 23 23 23 23 22 22 23 23 23 23 23 23 23 23 23 23 24 24 24 24 24 24 25 25 25 25
6 7 7 6 5 5 5 6 5 4 4 4 5 5 5 6 6 6 5 5 4 4 4 4 5 6 6 5 5 6 8 10 12 14 15 15 16 17 18 18 18 18 21 22 23 23 24 24 25 26 26 26 26 26 26 25 24 24 23 23 23 23 23 23 23 23 23 23 23 23 23 24 24 24 24 24 24 24 24 24 24 24 25 25 25 25
6 6 6 6 5 4 5 5 4 3 3 4 4 4 4 5 5 6 7 7 7 6 5 4 5 5 6 5 6 6 7 8 9 12 14 16 18 19 18 17 17 17 19 20 21 22 23 24 25 25 26 26 25 25 24 24 23 23 23 23 23 23 23 23 23 23 24 24 24 24 24 24 24 24 25 25 25 25 24 24 24 24 24 25 25 25
5 5 5 5 5 4 4 3 3 3 3 4 5 5 5 4 4 6 8 9 9 8 7 5 5 5 5 6 6 6 7 7 7 7 8 9 11 11 11 11 12 13 14 16 18 20 22 23 24 24 24 24 24 23 23 22 22 23 23 23 23 23 23 24 24 24 24 24 25 25 25 25 25 25 25 25 25 25 25 24 24 24 24 25 25 25
5 4 4 4 4 4 3 3 3 4 4 5 6 6 6 5 5 5 6 8 9 8 7 7 6 5 5 6 6 6 6 6 6 6 5 5 5 5 5 5 6 7 8 10 11 13 17 20 21 21 22 22 22 22 22 22 22 23 23 23 24 24 24 24 24 24 25 25 25 25 25 25 25 25 25 25 25 25 25 24 24 24 24 24 25 25
6 5 5 4 4 3 3 4 5 5 5 5 5 6 6 6 6 6 7 8 8 7 7 8 7 6 5 6 6 5 5 6 6 6 5 4 4 3 4 5 5 6 7 8 8 10 13 14 14 15 18 19 20 20 20 21 22 23 24 24 24 24 25 25 25 25 25 25 25 25 25 25 25 25 25 25 25 25 25 25 24 24 24 24 24 25
6 5 5 5 4 4 5 6 6 6 6 5 5 6 6 6 6 6 7 8 8 7 7 8 8 7 5 5 5 4 5 5 5 5 5 4 3 3 4 5 6 7 7 8 9 10 11 11 10 10 12 14 15 17 19 20 22 24 24 25 25 25 25 25 25 25 25 25 25 26 26 26 26 26 26 25 25 25 25 25 25 24 24 24 24 24
4 4 4 5 6 6 5 5 6 6 6 6 6 6 6 7 7 7 7 8 7 7 7 8 9 8 6 4 4 4 4 4 5 5 6 6 5 4 5 6 7 8 8 8 8 8 8 8 8 9 10 13 17 20 22 23 24 25 25 25 26 26 26 26 26 25 25 25 26 26 26 26 26 26 26 26 25 25 25 25 25 25 25 24 25 25
3 3 5 6 7 7 6 6 6 6 6 6 6 6 6 7 7 7 7 7 7 6 6 7 8 7 6 4 3 3 3 4 5 6 7 8 7 6 6 6 7 8 8 8 8 8 7 7 7 8 9 14 18 22 23 24 25 25 26 26 26 26 26 26 26 26 26 26 26 26 26 26 26 26 26 26 25 25 25 25 25 25 25 25 25 25
3 5 6 7 7 7 7 6 5 5 6 6 6 6 7 6 6 6 6 7 7 7 7 7 6 6 6 5 4 3 3 4 6 7 8 9 8 7 6 6 7 8 8 8 7 7 7 7 7 8 11 17 21 23 25 25 26 26 26 26 26 26 26 26 26 26 26 26 26 26 26 26 26 26 26 26 25 25 25 25 25 25 25 25 25 24
5 6 7 7 7 7 6 6 6 6 6 6 6 6 7 7 7 7 7 7 7 7 8 7 6 6 6 6 6 4 4 5 7 8 9 10 9 7 5 6 7 8 8 8 7 7 7 7 9 12 17 21 23 24 25 26 26 26 26 26 26 26 26 26 26 26 26 26 26 26 26 26 26 26 26 26 25 25 25 25 25 25 25 25 25 24
7 6 6 6 7 7 7 6 5 6 7 7 7 7 8 8 8 8 8 8 7 7 6 7 7 6 6 7 7 6 6 7 7 8 9 10 9 7 5 5 7 8 8 7 6 6 6 7 9 12 17 20 22 24 25 26 26 26 27 27 27 27 27 27 27 27 27 26 26 26 26 26 26 26 26 26 25 25 25 25 25 25 25 25 25 25
7 7 6 6 6 6 6 6 6 7 9 8 7 7 8 8 8 8 7 7 6 6 5 5 6 6 6 7 8 8 7 7 7 7 7 8 8 7 5 5 7 8 9 7 7 6 7 7 7 9 13 18 22 24 25 26 27 27 27 27 27 27 27 27 27 27 27 27 26 26 26 26 26 26 26 26 26 26 26 26 26 26 25 25 25 25
7 7 7 6 6 6 7 7 8 9 10 8 8 7 8 8 8 8 7 6 5 5 5 6 6 7 8 9 9 8 7 6 6 6 6 7 8 7 4 4 5 7 8 7 6 6 6 7 7 9 13 18 22 24 26 26 27 27 28 28 28 28 28 28 27 27 27 27 27 26 26 26 26 26 26 26 26 26 26 26 26 26 25 25 25 25
7 7 7 7 7 7 7 7 8 8 9 9 9 9 8 7 7 7 6 5 5 6 7 7 8 8 8 9 8 7 6 5 4 5 5 7 8 7 4 5 6 7 9 7 7 7 7 7 7 9 13 19 22 24 26 27 27 27 28 28 28 28 28 28 27 27 27 27 27 27 27 27 26 27 27 26 26 26 26 26 26 25 25 25 25 25
7 7 7 6 6 6 6 7 7 7 8 8 8 7 6 5 5 5 5 5 6 7 7 8 9 9 7 8 8 7 5 4 4 4 4 6 7 7 5 5 7 8 9 8 7 7 8 8 8 8 10 16 20 23 25 26 27 27 28 28 28 28 28 28 27 27 27 27 27 27 27 27 27 27 27 27 26 26 26 26 26 25 25 25 25 25
7 7 6 7 7 8 9 9 10 9 8 7 5 5 5 6 7 8 7 7 8 8 8 8 9 8 7 8 7 6 5 4 3 3 4 5 6 7 5 6 7 9 9 8 7 7 9 9 9 8 8 12 17 22 24 26 27 27 27 28 28 28 28 28 27 27 27 27 27 27 27 27 27 27 27 27 26 26 26 26 25 25 25 25 25 25
12 11 12 13 15 16 18 18 17 16 15 12 10 8 8 8 8 8 7 7 7 7 7 8 8 8 7 7 6 6 5 4 3 3 4 5 6 7 6 5 7 8 9 8 7 7 9 9 9 8 8 10 14 19 22 24 26 27 27 27 27 27 27 27 27 27 28 28 28 28 28 28 27 27 27 27 26 26 26 26 26 25 25 25 24 24
18 19 20 20 20 20 19 19 20 21 21 19 16 14 11 8 7 7 7 6 6 6 7 7 8 8 8 7 6 6 5 5 4 4 4 5 6 7 6 5 6 8 10 9 8 8 10 10 10 9 8 8 10 14 19 22 24 25 26 26 27 27 27 27 28 28 28 28 28 28 27 27 27 27 27 26 26 26 26 26 26 25 25 24 21 19
18 18 18 17 17 17 18 18 19 19 20 20 20 18 13 8 7 7 7 6 6 6 7 8 8 8 7 7 7 6 7 6 5 4 4 4 5 6 6 6 6 7 9 8 8 9 10 10 9 9 8 8 9 11 15 19 21 23 24 25 26 27 27 27 28 28 27 27 27 27 27 27 27 27 26 26 26 26 26 26 25 25 23 19 15 12
14 14 14 14 15 16 16 16 16 17 18 18 18 16 12 7 6 6 6 6 6 7 7 8 8 8 7 8 7 7 7 6 5 3 3 4 5 5 5 6 7 7 7 7 7 8 7 7 7 6 6 8 8 8 10 13 16 18 20 22 24 25 26 26 27 27 27 27 27 27 27 27 26 26 26 26 26 26 26 26 25 22 18 14 11 9
7 8 9 10 11 12 12 10 11 12 15 16 16 15 11 7 5 6 6 6 6 7 8 8 8 7 7 8 8 7 6 5 3 2 2 4 5 5 5 6 7 7 6 6 6 6 6 5 5 5 6 7 8 7 8 9 11 12 13 16 18 20 23 24 25 25 26 26 26 26 26 26 26 26 26 26 26 26 26 26 24 19 12 10 9 9
5 5 5 6 6 6 6 6 7 8 10 12 12 11 9 7 6 5 6 5 6 6 7 7 7 7 7 7 6 6 5 5 4 3 3 4 5 5 6 7 7 7 5 5 5 6 7 5 5 5 5 7 7 8 8 9 9 9 9 10 12 14 19 21 23 23 24 24 25 25 26 26 26 26 26 26 26 26 26 26 23 18 11 9 9 9
5 5 5 5 5 5 5 6 5 5 6 7 7 7 7 7 6 5 5 5 5 5 6 7 7 8 7 7 7 7 6 5 6 6 6 5 5 5 6 6 7 7 6 5 6 6 7 6 5 5 6 7 7 8 9 9 9 9 9 9 10 11 16 18 19 19 19 21 22 23 24 25 25 25 25 25 26 25 26 26 23 19 12 10 9 9
6 5 5 5 5 5 5 5 5 5 5 5 5 5 6 6 6 6 5 5 5 5 6 7 8 8 8 8 8 8 8 7 7 8 8 6 5 5 5 7 7 8 7 7 7 7 7 7 7 7 7 7 7 7 8 9 9 9 9 9 9 10 13 14 14 14 14 16 17 19 21 22 23 24 24 25 25 25 25 25 24 21 15 11 9 9
6 6 6 5 5 5 5 5 6 6 6 5 5 5 5 5 5 6 6 5 5 5 5 6 7 8 8 8 8 9 9 8 9 10 9 7 5 5 6 7 8 8 8 7 7 7 7 8 9 8 7 7 7 7 7 8 9 9 8 8 8 9 10 10 10 11 11 12 12 13 14 16 18 19 21 22 22 23 24 24 24 23 20 15 11 10
6 6 6 6 5 5 6 6 6 6 6 5 5 5 5 5 5 5 5 5 5 5 6 6 7 7 8 8 9 9 9 8 9 10 10 8 6 6 7 7 7 8 8 8 7 7 7 9 10 10 9 8 7 7 6 7 8 8 7 8 8 8 9 9 9 9 10 10 10 10 10 10 11 13 15 17 19 21 22 23 24 24 23 21 17 14
6 6 6 6 6 6 6 6 6 6 6 6 5 5 5 5 5 6 6 6 6 7 7 7 7 7 8 8 9 10 10 10 10 11 11 9 8 7 6 7 7 8 8 9 8 8 8 9 10 11 11 10 9 7 6 6 7 7 8 9 9 9 9 9 9 9 9 10 10 10 9 9 9 10 11 16 19 21 22 23 24 24 24 24 22 20
6 6 6 6 6 6 7 6 6 6 6 6 6 6 6 6 6 6 6 6 7 7 8 9 9 9 10 10 10 10 11 11 11 11 12 10 9 8 8 8 8 9 9 9 9 9 9 10 10 10 10 9 8 7 7 7 7 8 8 9 9 10 10 10 9 9 9 10 10 10 10 9 9 10 11 15 18 19 21 22 22 23 23 24 24 24
6 6 6 6 6 6 6 6 6 6 6 7 7 7 7 7 8 8 7 7 8 8 8 8 8 10 13 14 13 13 13 13 14 14 14 12 10 9 9 9 9 9 9 9 9 9 9 10 10 10 10 9 9 9 10 9 9 9 9 10 10 10 10 10 9 9 9 10 11 11 11 10 10 10 10 12 12 12 13 13 15 17 19 19 21 22
6 6 6 6 6 6 6 6 6 7 7 7 7 8 8 8 8 8 8 8 8 8 8 8 8 9 11 13 14 15 15 15 15 14 14 12 11 10 10 10 10 10 10 9 9 9 9 10 10 10 10 9 10 10 10 10 10 11 11 11 10 10 10 9 9 9 9 10 11 11 11 10 10 9 9 9 8 8 9 9 10 11 12 11 13 16
6 6 6 7 6 6 6 7 7 7 7 7 8 8 8 8 8 8 8 8 8 8 9 9 9 9 10 11 12 13 14 13 12 12 11 10 9 9 10 10 10 10 10 10 9 9 10 10 10 11 11 10 10 10 10 10 11 11 12 10 9 9 9 9 9 9 9 9 10 10 10 10 9 9 9 9 9 9 9 8 8 9 10 8 8 9
7 7 6 7 7 7 7 7 7 7 7 7 7 7 7 7 7 7 7 7 7 7 7 8 8 9 9 10 10 11 12 12 12 12 10 10 11 11 10 10 10 10 10 10 10 10 10 10 11 11 11 11 11 12 12 12 13 14 14 12 11 10 11 11 11 10 9 9 9 10 10 11 11 11 10 10 10 9 8 8 9 9 9 8 7 7
8 7 7 7 7 7 7 7 8 8 8 7 7 7 7 6 6 6 7 7 7 7 7 7 7 8 9 9 9 9 10 10 10 11 11 12 12 11 10 10 9 9 9 10 10 10 10 11 11 11 11 11 11 11 11 12 13 13 13 13 13 13 12 12 10 8 9 9 9 9 11 11 10 10 11 10 10 10 9 10 11 11 11 9 8 8
7 7 7 7 7 7 8 8 8 8 7 7 7 7 7 6 6 7 8 8 8 8 8 8 8 9 9 10 9 9 8 8 9 10 10 10 10 10 10 11 10 10 9 10 10 10 11 11 11 11 11 11 11 12 13 13 13 13 12 12 12 11 8 8 7 7 7 9 9 9 10 10 10 10 10 10 10 9 9 10 12 13 13 10 9 9
7 7 7 7 7 7 7 7 7 7 7 7 7 7 7 7 7 8 8 8 8 8 8 8 8 8 9 10 10 9 8 7 8 9 9 10 10 10 11 11 11 11 10 9 9 10 10 11 11 11 11 11 11 12 13 13 13 13 12 13 12 12 10 9 9 9 10 10 10 9 10 9 10 10 11 11 10 9 9 9 9 10 11 10 10 10
6 7 7 7 7 7 7 7 7 7 7 7 8 8 7 7 8 8 7 8 8 8 8 8 7 7 8 9 9 9 8 8 7 7 8 10 12 13 12 11 10 10 10 10 10 10 10 10 10 10 10 10 11 12 13 13 13 13 13 13 13 13 13 12 12 11 11 11 10 10 10 9 9 10 11 11 10 10 10 9 9 9 9 9 9 9
6 6 7 6 6 7 8 8 7 7 7 8 8 8 8 7 7 7 8 8 8 8 8 7 7 7 8 9 9 9 9 9 8 8 7 7 8 8 9 9 9 9 9 9 10 10 10 11 11 11 10 10 11 12 13 13 13 13 13 13 12 12 12 12 11 11 11 11 11 11 10 10 10 10 10 11 11 10 10 9 9 9 9 8 8 9
6 7 7 7 7 7 7 7 7 7 8 8 8 8 8 8 7 7 8 8 8 8 8 8 7 8 9 9 9 9 10 10 10 10 8 8 8 7 8 8 8 9 9 9 10 11 11 11 12 11 11 11 12 12 13 13 13 13 13 12 12 12 12 12 11 11 11 11 11 11 9 9 9 10 11 11 11 10 10 9 9 9 9 9 8 9
7 7 7 7 7 7 7 7 7 7 8 8 8 8 8 8 8 9 8 8 8 8 8 8 8 9 9 10 10 10 10 11 11 10 10 9 9 8 8 7 7 8 9 10 11 11 12 12 12 12 12 12 12 13 13 13 13 12 12 12 12 12 12 12 12 11 11 11 12 11 9 8 9 9 10 11 11 11 10 10 10 9 9 9 9 9
7 7 7 7 7 7 7 7 7 8 8 9 9 9 8 9 10 10 8 8 8 7 8 8 9 9 9 10 10 10 11 11 11 10 10 10 9 8 8 7 7 8 8 9 9 9 10 11 12 12 12 12 12 13 14 13 13 12 12 11 11 11 12 12 12 11 11 11 11 11 9 8 8 9 9 11 12 13 12 12 11 10 9 9 9 9
7 7 7 7 7 7 7 8 8 8 9 9 9 9 9 8 8 8 8 8 7 7 7 8 9 9 10 10 10 10 11 10 10 10 10 9 9 9 8 9 9 9 9 8 7 7 7 7 9 11 12 13 13 13 13 13 13 12 12 11 11 11 11 11 11 11 11 11 10 10 8 8 8 8 9 11 13 14 14 13 12 10 9 8 8 9
7 7 7 7 7 7 7 8 8 8 9 9 9 9 9 9 8 8 8 7 8 8 8 8 9 9 10 10 11 11 11 10 10 10 10 9 9 9 10 10 10 10 10 9 8 7 7 7 7 8 9 12 14 13 11 11 11 12 12 11 10 10 10 11 11 10 11 10 10 9 9 9 9 9 9 10 12 13 14 13 12 11 9 8 8 9
Wind_Direction
297 302 305 310 309 304 299 300 301 301 300 302 301 300 299 299 297 295 294 293 290 287 285 284 283 282 283 287 290 293 296 298 300 301 302 302 302 302 303 303 304 304 304 304 304 304 303 302 302 301 300 299 298 297 297 296 296 296 296 296 296 296 295 295 295 295 295 296 296 296 296 297 297 297 296 296 295 295 294 293 292 291 290 289 288 288
297 299 301 306 305 300 296 297 296 295 297 299 300 300 300 298 296 294 292 288 285 283 283 283 281 280 278 281 288 292 295 297 299 301 301 302 302 303 303 304 304 304 304 304 304 303 302 302 301 300 299 298 298 297 297 297 296 297 297 297 297 297 297 297 297 297 297 297 297 297 297 296 296 295 294 293 292 291 290 289 288 287 286 285 285 284
302 301 300 300 298 295 294 297 294 289 289 292 294 295 295 294 292 291 290 288 285 282 280 280 280 279 278 280 287 291 294 297 299 301 302 302 303 303 304 304 304 304 304 303 303 302 302 301 300 299 299 298 297 297 297 297 297 298 298 299 299 299 298 298 298 297 297 297 297 297 296 295 295 294 292 291 290 289 287 286 285 284 284 283 282 282
302 301 300 300 293 288 286 291 292 290 288 289 290 289 288 288 287 286 286 287 286 283 279 275 275 277 278 279 285 290 293 297 299 301 302 303 303 303 303 303 303 303 303 302 302 301 301 300 299 299 298 297 297 297 298 298 299 299 300 300 300 299 299 298 298 298 297 297 297 296 296 295 294 293 291 290 289 288 286 285 284 283 282 281 280 280
299 298 299 300 296 290 285 287 289 290 289 287 286 285 284 283 284 285 286 285 283 281 279 276 274 275 279 280 285 289 293 297 299 301 302 303 302 302 302 302 302 302 301 301 301 301 300 299 299 298 297 297 298 298 299 300 300 301 301 300 300 299 298 298 298 297 297 297 296 296 295 294 293 292 290 289 288 287 286 284 283 282 281 280 279 279
296 293 295 294 294 293 293 290 289 290 290 286 284 283 283 283 285 287 288 287 285 284 283 281 278 276 277 278 284 290 294 298 300 301 301 301 301 301 300 300 300 300 300 300 300 299 299 298 298 298 298 298 299 300 301 301 301 301 301 300 300 299 299 298 298 298 297 297 296 295 294 293 292 290 289 288 287 286 284 283 282 281 280 279 278 277
293 291 293 290 289 289 291 290 290 289 289 290 290 289 287 287 286 285 285 286 287 287 285 282 278 276 275 277 284 290 295 298 299 299 299 299 298 298 298 299 299 299 299 299 299 298 298 298 298 299 299 300 301 301 302 302 302 301 301 300 300 299 299 299 298 298 297 296 295 294 293 292 291 290 288 287 286 285 284 283 281 280 279 278 277 276
296 296 296 294 294 292 290 288 287 287 287 292 295 297 295 292 289 287 285 284 283 283 284 284 282 281 281 283 287 291 294 296 296 296 296 296 295 295 296 296 297 297 297 297 298 298 298 298 299 300 301 301 301 302 302 301 301 301 300 300 300 299 299 298 298 297 296 296 294 293 292 291 290 289 288 287 286 284 283 282 281 280 279 278 277 276
296 299 299 297 298 298 296 291 286 284 286 290 294 296 297 296 295 294 292 289 284 282 287 293 295 295 292 291 291 291 291 291 291 291 292 291 292 292 293 294 295 296 296 297 297 298 299 300 300 301 301 301 301 301 301 301 301 300 300 299 299 298 298 297 297 296 295 294 293 292 291 290 289 288 287 286 285 283 282 281 281 280 279 278 277 276
294 297 299 297 295 293 291 290 288 285 282 283 283 285 290 296 299 301 300 298 296 295 295 300 301 300 298 295 293 291 291 290 290 290 290 289 289 290 291 292 293 295 296 297 299 300 300 301 301 301 301 301 301 300 301 300 300 300 299 298 298 297 297 296 295 294 293 292 291 290 290 289 288 287 286 285 284 283 282 282 281 280 280 279 278 278
296 296 296 294 289 281 276 281 286 287 281 279 279 280 285 294 302 307 308 307 306 306 303 301 301 300 301 300 297 294 292 290 289 287 287 287 287 288 289 291 293 295 297 299 300 301 301 301 301 300 300 300 300 300 300 299 299 298 298 297 296 296 295 294 293 292 291 291 290 290 289 289 288 287 286 285 285 284 283 283 282 282 281 281 280 279
296 294 291 287 285 282 279 281 283 287 290 295 298 300 301 304 307 308 308 308 308 308 306 303 300 297 298 298 297 294 290 287 284 282 281 282 283 285 288 291 294 297 299 299 300 300 300 300 300 299 299 299 299 299 299 298 298 297 297 296 295 294 293 292 291 291 290 290 290 290 290 289 289 288 287 287 286 286 285 285 284 284 283 282 281 280
290 286 282 280 280 283 289 297 302 306 310 311 310 309 309 311 310 308 304 303 304 305 305 304 301 296 292 289 288 287 285 282 281 279 279 280 281 284 290 293 296 297 298 298 297 297 298 298 298 298 298 298 298 298 298 297 296 296 295 294 293 292 292 291 291 291 291 291 290 290 290 290 289 289 288 288 288 288 287 287 286 284 283 282 281 280
285 280 276 277 282 292 304 312 314 314 313 311 308 306 306 309 310 307 302 299 300 302 304 301 298 295 290 283 278 275 277 280 282 283 284 285 288 293 297 297 297 297 297 296 294 294 295 297 297 297 296 296 296 296 295 294 294 293 293 293 292 292 292 292 292 292 291 291 290 290 290 290 290 290 289 289 289 289 288 287 286 284 283 282 281 280
281 280 282 289 298 308 315 315 312 309 306 306 306 306 306 306 306 304 302 300 301 302 302 297 293 289 284 278 273 272 276 282 288 292 293 290 290 293 299 299 298 297 296 294 292 292 294 294 293 291 291 290 290 290 291 291 292 292 293 293 293 293 293 293 292 292 291 291 291 291 290 290 290 290 290 290 290 289 288 287 286 284 283 281 280 279
283 291 301 308 311 312 313 311 308 305 305 306 306 306 305 304 303 302 300 300 301 301 298 296 293 290 284 277 274 277 284 291 297 299 300 296 295 298 302 300 298 296 294 291 290 290 291 289 286 284 285 287 288 290 291 291 292 293 293 294 294 293 293 293 292 292 291 291 291 291 291 291 291 291 291 290 290 289 288 286 285 284 282 281 279 278
299 311 311 309 307 306 306 304 302 301 303 304 304 302 300 300 299 299 297 296 295 294 291 292 294 296 296 293 289 289 304 309 308 305 302 298 298 300 302 298 295 293 291 288 287 286 287 285 285 284 283 286 288 290 291 292 293 293 293 293 293 293 293 292 292 292 292 292 292 292 292 292 292 291 291 290 289 288 287 285 284 283 281 280 278 278
310 310 308 304 302 302 304 303 301 300 301 300 299 296 294 292 291 291 289 287 286 285 285 285 287 291 297 299 302 316 339 325 315 307 302 297 296 297 299 294 290 288 287 285 284 283 283 282 282 282 284 288 289 291 292 293 293 292 292 292 292 292 292 292 292 292 292 292 292 292 292 292 291 291 290 289 288 287 286 285 284 283 282 281 280 279
307 305 303 300 299 299 300 299 299 299 298 296 295 293 289 286 285 283 281 278 277 277 280 281 282 284 288 292 301 318 338 324 314 306 299 296 295 297 299 294 289 286 284 283 282 282 282 280 281 283 285 288 289 290 291 291 291 291 291 292 292 292 292 292 292 292 292 292 292 292 292 291 290 290 289 288 288 287 286 286 285 285 284 283 282 282
302 300 297 297 297 296 294 293 293 294 292 290 288 287 286 285 283 280 277 277 277 277 278 279 281 285 290 296 303 313 325 319 310 301 296 294 295 296 300 294 289 286 283 282 282 282 282 280 281 283 285 287 288 289 289 290 290 291 291 291 291 291 292 292 292 292 292 292 292 291 291 290 290 289 288 288 288 288 287 287 287 286 285 284 283 282
295 292 289 290 291 291 289 288 286 286 285 285 284 283 281 280 278 277 277 280 281 281 279 280 286 294 303 303 305 308 316 313 306 299 295 294 293 294 295 288 285 284 283 283 282 282 280 278 278 279 282 285 286 287 288 289 290 290 291 291 291 291 291 291 291 291 291 291 291 291 290 290 289 289 289 289 289 289 288 288 287 286 285 284 283 281
286 286 285 283 281 280 282 282 281 280 279 279 278 276 275 275 277 279 283 286 288 291 294 296 299 301 301 298 299 302 309 307 301 297 296 292 290 289 290 285 283 283 283 284 283 281 278 277 276 277 279 283 285 287 288 289 290 290 290 291 291 291 291 291 291 290 290 290 290 290 290 289 289 289 290 290 290 289 289 288 287 286 285 284 282 281
275 279 282 280 276 274 275 276 275 273 273 270 268 267 267 270 274 280 287 295 300 303 302 299 297 296 294 294 295 298 301 295 290 288 289 287 288 290 293 290 287 285 283 285 286 285 281 279 277 278 281 284 285 287 288 289 289 289 290 290 290 290 290 290 290 290 290 290 290 290 290 290 290 290 290 290 290 289 288 287 286 285 284 283 282 280
274 277 279 275 271 267 267 269 269 268 266 262 260 260 263 271 281 290 300 305 304 303 300 298 297 295 295 296 296 295 293 288 283 281 282 283 286 290 296 294 290 287 284 285 286 287 286 283 280 279 280 283 285 286 287 288 288 289 289 289 290 290 290 290 290 290 290 290 290 291 291 291 291 291 290 290 289 288 287 286 285 284 283 282 281 280
279 278 275 272 270 269 270 271 274 276 279 278 281 290 300 306 309 310 309 306 304 302 301 300 299 298 298 299 296 293 291 283 279 280 282 284 286 289 292 292 289 287 286 287 288 288 287 285 283 281 280 282 284 285 286 287 287 288 288 288 289 289 289 289 290 290 291 291 292 292 292 291 291 290 290 289 288 287 286 285 284 284 283 282 282 281
286 285 284 284 285 286 288 290 294 299 305 308 312 315 315 315 313 310 306 303 303 303 303 300 297 296 297 297 295 292 293 287 282 280 283 286 288 289 289 289 288 288 289 289 290 289 288 287 286 284 282 282 283 284 284 285 286 286 287 287 288 289 289 290 291 292 292 292 292 292 291 291 290 289 288 288 287 286 285 285 285 285 284 284 284 283
292 292 292 293 295 297 300 304 306 308 310 311 311 311 310 310 307 302 298 301 305 307 304 299 297 296 296 294 292 292 295 295 291 287 284 284 285 286 288 290 290 290 291 291 291 290 289 288 288 286 283 280 280 280 281 282 284 285 286 287 289 290 290 291 292 292 292 291 291 291 290 289 289 288 287 287 287 286 286 286 286 286 286 286 285 284
293 294 295 297 300 303 306 308 309 309 310 309 308 307 306 305 301 298 297 304 308 305 297 294 293 294 295 294 294 294 296 294 291 286 281 280 280 283 288 292 293 293 293 292 291 289 287 285 284 282 279 276 275 276 278 281 284 286 287 288 290 290 291 291 291 291 291 290 290 289 289 288 288 288 287 287 287 287 287 287 287 287 287 286 285 283
291 293 296 300 303 306 308 308 308 307 306 305 305 304 304 302 298 296 297 302 300 295 288 287 288 290 292 294 295 294 291 288 285 281 280 281 280 282 290 294 295 295 296 295 292 288 281 278 277 276 275 276 276 277 280 284 286 287 288 288 289 289 289 289 289 289 289 289 289 288 288 288 288 288 288 288 288 287 287 287 287 287 287 285 282 279
292 295 298 302 304 305 305 303 301 301 301 301 301 301 301 296 290 287 288 290 288 285 284 285 287 289 292 296 296 293 287 284 283 287 296 289 286 286 292 293 293 294 298 298 296 291 283 277 274 275 278 281 282 284 284 285 285 285 286 286 286 286 287 287 287 288 288 288 288 288 288 288 288 288 288 287 287 287 287 287 287 286 284 281 279 276
300 301 300 301 300 299 297 293 291 292 295 296 297 296 293 286 279 275 276 277 278 279 281 284 286 288 291 294 294 292 288 288 294 302 305 292 286 286 292 292 291 291 293 295 296 296 295 290 283 279 282 285 285 285 284 283 283 283 283 284 284 284 285 286 287 287 288 288 288 288 288 288 288 288 287 287 286 286 286 286 285 285 282 279 276 273
306 305 302 301 298 296 294 293 291 290 289 289 287 284 280 277 274 271 269 269 271 274 278 281 283 284 284 282 281 281 283 287 295 300 300 290 285 285 289 288 288 288 288 284 284 288 294 295 294 291 288 286 285 283 282 282 282 282 283 283 283 283 285 286 287 288 288 288 288 288 287 287 287 286 286 285 285 284 284 284 284 283 280 277 274 272
309 306 302 300 298 296 296 295 293 290 287 285 280 277 274 274 273 273 271 268 268 271 275 278 280 281 280 277 274 274 276 282 290 296 296 290 286 285 286 286 286 287 288 282 278 277 279 286 291 294 290 285 283 282 282 282 282 282 282 283 283 284 285 286 286 286 285 286 286 286 286 286 285 285 284 283 283 282 282 282 281 280 278 275 272 269
307 303 299 297 296 295 293 291 288 286 285 285 283 282 279 277 276 276 275 272 270 268 269 272 276 278 279 278 276 275 275 279 287 293 295 290 285 283 285 285 285 287 289 285 282 279 276 280 285 290 291 287 283 282 283 284 283 282 280 280 280 282 284 284 284 283 283 283 283 283 283 283 282 282 281 281 280 279 279 279 278 277 276 273 270 268
302 300 299 298 297 296 294 292 290 288 287 287 288 288 287 284 282 280 278 275 273 270 267 267 269 271 275 277 278 279 279 282 287 291 292 287 283 283 285 283 284 286 287 286 285 284 281 282 284 287 290 291 288 284 282 282 282 282 279 277 278 279 281 282 282 282 282 281 279 278 277 277 276 276 276 276 275 275 276 276 276 276 275 274 273 271
300 300 300 299 299 298 298 297 297 297 296 295 294 292 291 289 287 285 282 280 278 275 273 270 268 267 267 269 272 275 278 282 286 288 287 283 282 282 283 282 283 284 284 284 283 283 283 284 285 286 288 289 290 289 286 283 282 282 281 280 280 280 279 279 278 278 279 278 277 275 273 272 270 270 270 272 273 273 274 275 276 276 276 276 275 274
300 300 300 300 299 299 299 300 301 302 302 301 299 297 296 294 292 290 287 283 280 277 276 274 271 268 266 265 266 269 274 279 282 283 282 280 279 278 277 278 279 279 279 281 282 284 284 286 287 287 285 285 287 290 293 293 290 286 284 283 283 282 280 278 276 275 274 274 273 273 272 271 270 270 270 272 273 274 275 276 276 276 276 275 274 273
299 299 300 301 301 301 302 303 304 304 304 303 302 301 300 297 294 291 289 285 280 277 275 274 273 272 270 270 270 270 273 276 277 278 277 275 274 273 273 276 276 276 274 276 279 281 283 284 287 288 286 284 284 287 291 294 293 290 286 285 282 280 279 278 276 274 273 273 274 274 274 274 273 273 273 273 273 274 274 273 272 272 273 272 272 271
299 300 302 304 305 305 305 304 304 303 303 301 300 300 299 296 293 290 288 286 284 281 279 278 278 277 274 273 273 273 274 274 275 275 274 272 270 269 270 273 275 275 273 272 273 274 276 278 281 284 286 288 288 288 288 288 287 287 288 287 283 279 276 277 276 276 275 276 277 277 277 275 274 272 271 271 270 269 268 268 266 265 266 266 268 269
302 302 303 305 306 306 303 302 301 301 301 299 298 298 297 296 294 292 291 289 288 286 284 282 280 278 277 276 276 275 276 275 275 274 273 269 266 265 266 269 272 273 274 272 270 269 270 272 275 277 280 283 286 287 287 285 284 286 289 289 286 283 281 281 280 279 276 275 274 275 275 274 271 269 267 266 265 264 263 264 264 263 262 262 264 267
307 306 305 306 306 303 300 299 299 299 299 299 299 299 299 299 299 299 298 295 292 290 288 286 284 281 279 277 276 276 275 274 272 271 268 264 261 260 261 264 266 269 271 271 270 268 267 270 273 275 276 278 280 282 282 282 283 285 287 285 284 284 285 283 281 278 276 273 271 271 273 274 273 271 269 267 265 263 261 262 264 264 264 260 258 259
307 306 305 305 304 302 300 300 300 300 299 300 300 299 300 300 300 299 299 298 296 294 293 292 291 290 288 285 282 278 274 272 270 268 266 262 259 257 258 259 262 264 268 270 270 269 267 268 270 272 274 276 278 280 281 281 282 282 281 281 283 285 285 280 276 274 275 274 273 272 273 274 273 272 271 270 268 265 262 261 262 263 263 260 255 252
304 302 301 300 299 299 299 301 302 303 303 302 300 298 298 298 298 296 296 295 295 296 296 295 293 292 292 292 290 287 281 274 270 268 267 264 260 258 258 258 259 260 263 267 270 270 268 268 268 270 272 274 275 277 280 282 282 281 278 279 281 284 284 281 279 278 276 275 275 274 273 272 272 272 272 270 269 267 265 263 262 261 260 258 256 252
300 298 298 298 298 300 302 304 305 305 304 302 299 298 297 296 295 294 294 293 293 294 295 295 293 291 289 289 290 291 290 285 279 275 272 270 267 264 263 262 261 261 260 263 267 271 273 271 270 269 271 272 273 274 276 279 280 280 279 278 277 276 274 279 284 285 282 278 275 273 272 271 272 273 273 271 270 268 266 262 259 256 253 252 251 251
296 297 298 300 303 305 306 305 305 304 302 300 298 297 297 297 296 295 294 293 293 293 294 295 294 293 289 290 292 294 295 295 292 286 279 274 272 271 269 267 266 265 263 261 262 265 270 273 273 273 272 271 270 270 272 275 277 278 278 277 276 273 271 275 279 281 280 279 277 274 272 272 273 274 273 272 270 268 265 262 260 256 252 248 247 247
297 300 302 304 305 305 304 304 303 302 300 298 297 297 298 298 297 294 292 292 292 292 292 292 291 290 290 292 295 297 298 297 296 293 289 283 277 273 269 266 265 265 264 263 262 261 263 267 271 274 277 274 271 269 268 272 274 277 278 277 277 276 275 276 275 276 276 277 277 275 273 272 272 271 271 271 270 268 265 263 260 258 255 251 248 246
301 303 304 304 303 302 301 302 302 301 299 298 298 298 298 298 298 295 293 292 292 292 292 292 289 286 286 289 292 294 296 297 297 297 296 294 290 284 278 272 268 266 265 265 264 263 262 262 264 268 272 274 274 273 271 271 272 273 275 277 278 278 277 276 276 276 276 275 275 275 276 274 272 270 270 272 272 272 270 267 264 261 257 254 250 248
303 303 303 302 302 301 301 302 302 301 299 299 298 298 298 298 299 298 296 296 294 293 293 292 289 287 286 287 288 289 291 292 294 295 296 296 295 293 289 285 280 274 271 268 266 265 264 262 260 260 263 266 270 273 274 273 272 271 272 275 276 276 275 276 276 276 276 274 273 272 273 273 272 273 276 277 277 276 275 272 268 264 259 255 252 250
303 301 300 300 300 300 300 301 302 300 299 299 298 298 298 298 299 299 297 296 295 293 291 290 289 288 288 288 288 288 289 290 290 291 293 295 295 295 294 293 290 287 283 278 273 270 268 263 258 253 251 253 258 265 270 271 271 271 271 272 273 273 274 275 276 276 276 275 273 272 270 270 270 273 277 279 279 278 277 275 272 268 262 257 253 251
299 297 298 298 299 299 300 301 301 300 298 298 298 299 299 299 299 297 294 293 292 290 288 288 288 288 288 289 289 290 290 290 290 290 291 292 294 296 296 295 295 294 292 289 285 281 278 272 262 252 245 245 248 255 263 267 270 271 271 271 271 272 274 275 277 278 278 278 278 276 274 273 272 272 274 276 277 278 278 276 273 270 265 259 255 252
299 298 298 298 298 299 299 299 299 298 297 297 298 298 299 300 299 297 295 294 292 290 288 287 286 286 287 288 289 290 290 290 290 291 291 292 294 294 294 294 295 295 294 293 292 291 289 287 282 271 257 251 250 252 259 264 269 273 274 273 273 274 275 277 279 280 280 281 281 280 279 276 274 272 270 272 275 277 278 277 275 272 268 264 259 257